Date String (YYYY-MM-DD hh:mm:ss) UTC,Instrument flags,Ambient pressure (hPa),Sample flow (lpm),Bypass flow (lpm),Sample temperature (°C),Ambient temperature (°C),ASC tube jacket temperature (°C),LED temperature (°C),Box temperature (°C),Sample RH (%),Span deviation,Mass concentration (μg/m³),Mass concentration (μg/m³),Mass concentration (μg/m³)
DateTimeUTC,F1_M11,P_M11,Q1_M11,Q2_M11,T1_M11,T2_M11,T3_M11,T4_M11,T5_M11,U1_M11,ZSPAN_M11,X2_M11,X0_M11,X1_M11
2023-04-27 23:00:00,,0822.4,5.00,0.00,28.9,27.2,00.0,37.3,30.4,10.8,0000.0,0003.15,0007.53,0001.32
2023-04-27 23:01:00,,0822.8,5.01,0.00,28.9,27.2,00.0,37.3,30.4,11.0,0000.0,0003.17,0007.67,0001.34
2023-04-27 23:02:00,,0822.9,5.00,0.00,28.9,27.2,00.0,37.3,30.4,11.0,0000.0,0003.16,0007.62,0001.33
2023-04-27 23:03:00,,0822.5,5.00,0.00,28.9,27.2,00.0,37.3,30.3,10.9,0000.0,0003.19,0007.67,0001.35
2023-04-27 23:04:00,,0822.7,5.00,0.00,28.9,27.2,00.0,37.3,30.4,10.8,0000.0,0003.23,0007.80,0001.36
2023-04-27 23:05:00,,0822.7,4.99,0.00,28.9,27.2,00.0,37.3,30.4,10.8,0000.0,0003.26,0007.86,0001.37
2023-04-27 23:06:00,,0822.8,5.01,0.00,28.9,27.2,00.0,37.3,30.4,10.9,0000.0,0003.26,0007.67,0001.37
2023-04-27 23:07:00,,0822.8,5.01,0.00,28.9,27.2,00.0,37.3,30.4,10.9,0000.0,0003.27,0007.69,0001.38
2023-04-27 23:08:00,,0822.7,5.01,0.00,28.9,27.2,00.0,37.2,30.4,10.9,0000.0,0003.29,0007.64,0001.38
2023-04-27 23:09:00,,0822.7,5.00,0.00,28.9,27.2,00.0,37.3,30.4,11.0,0000.0,0003.31,0007.87,0001.36
2023-04-27 23:10:00,,0822.7,5.00,0.00,28.9,27.2,00.0,37.3,30.4,11.0,0000.0,0003.29,0007.94,0001.34
2023-04-27 23:11:00,,0822.7,5.00,0.00,28.9,27.2,00.0,37.3,30.4,10.7,0000.0,0003.32,0007.93,0001.34
2023-04-27 23:12:00,,0822.8,5.01,0.00,28.9,27.2,00.0,37.3,30.4,10.8,0000.0,0003.37,0007.98,0001.34
2023-04-27 23:13:00,,0822.9,5.01,0.00,28.9,27.2,00.0,37.2,30.4,11.2,0000.0,0003.42,0008.16,0001.36
2023-04-27 23:14:00,,0822.9,4.99,0.00,28.9,27.2,00.0,37.2,30.3,10.8,0000.0,0003.45,0008.31,0001.37
2023-04-27 23:15:00,,0822.8,4.99,0.00,28.9,27.2,00.0,37.2,30.4,10.6,0000.0,0003.44,0008.52,0001.38
2023-04-27 23:16:00,,0823.0,5.00,0.00,28.9,27.2,00.0,37.2,30.4,10.8,0000.0,0003.40,0008.50,0001.37
2023-04-27 23:17:00,,0822.9,5.00,0.00,28.9,27.2,00.0,37.2,30.4,10.9,0000.0,0003.44,0008.95,0001.37
2023-04-27 23:18:00,,0822.9,5.01,0.00,28.9,27.2,00.0,37.2,30.4,11.2,0000.0,0003.48,0009.49,0001.36
2023-04-27 23:19:00,,0822.9,5.01,0.00,28.9,27.2,00.0,37.3,30.4,11.0,0000.0,0003.51,0009.91,0001.34
2023-04-27 23:20:00,,0822.9,5.00,0.00,28.9,27.2,00.0,37.2,30.4,11.0,0000.0,0003.58,0010.14,0001.35
2023-04-27 23:21:00,,0822.6,5.00,0.00,28.9,27.2,00.0,37.2,30.3,11.0,0000.0,0003.61,0010.11,0001.37
2023-04-27 23:22:00,,0823.0,5.00,0.00,28.9,27.2,00.0,37.3,30.4,11.1,0000.0,0003.68,0010.39,0001.38
2023-04-27 23:23:00,,0823.1,5.00,0.00,28.9,27.2,00.0,37.3,30.4,10.9,0000.0,0003.69,0010.68,0001.38
2023-04-27 23:24:00,,0823.2,4.99,0.00,28.9,27.1,00.0,37.3,30.4,11.1,0000.0,0003.72,0010.83,0001.37
2023-04-27 23:25:00,,0823.2,5.01,0.00,28.9,27.1,00.0,37.2,30.4,11.2,0000.0,0003.83,0011.23,0001.37
2023-04-27 23:26:00,,0823.1,5.00,0.00,28.9,27.1,00.0,37.2,30.3,11.0,0000.0,0003.91,0011.38,0001.38
2023-04-27 23:27:00,,0823.0,4.99,0.00,28.9,27.1,00.0,37.2,30.4,10.9,0000.0,0004.05,0011.66,0001.39
2023-04-27 23:28:00,,0823.2,5.00,0.00,28.9,27.1,00.0,37.2,30.4,11.1,0000.0,0004.20,0011.82,0001.42
2023-04-27 23:29:00,,0823.1,5.00,0.00,28.9,27.1,00.0,37.2,30.4,10.9,0000.0,0004.24,0011.35,0001.44
2023-04-27 23:30:00,,0822.9,5.00,0.00,28.9,27.1,00.0,37.2,30.4,11.1,0000.0,0004.32,0011.31,0001.47
2023-04-27 23:31:00,,0822.9,4.99,0.00,28.8,27.0,00.0,37.2,30.4,11.3,0000.0,0004.41,0011.36,0001.49
2023-04-27 23:32:00,,0823.0,5.01,0.00,28.8,27.0,00.0,37.2,30.3,11.5,0000.0,0004.49,0011.60,0001.51
2023-04-27 23:33:00,,0822.9,5.01,0.00,28.8,27.0,00.0,37.2,30.3,11.9,0000.0,0004.51,0012.94,0001.55
2023-04-27 23:34:00,,0823.1,4.99,0.00,28.8,27.0,00.0,37.2,30.3,11.8,0000.0,0004.54,0013.35,0001.55
2023-04-27 23:35:00,,0823.5,5.00,0.00,28.8,26.9,00.0,37.2,30.3,12.0,0000.0,0004.53,0013.30,0001.55
2023-04-27 23:36:00,,0823.6,5.00,0.00,28.8,26.9,00.0,37.2,30.3,12.0,0000.0,0004.45,0012.85,0001.54
2023-04-27 23:37:00,,0823.6,5.00,0.00,28.8,26.9,00.0,37.2,30.2,11.8,0000.0,0004.41,0012.70,0001.51
2023-04-27 23:38:00,,0823.5,5.00,0.00,28.8,26.9,00.0,37.2,30.2,12.0,0000.0,0004.35,0012.48,0001.49
2023-04-27 23:39:00,,0823.6,4.98,0.00,28.8,26.9,00.0,37.2,30.2,11.8,0000.0,0004.23,0012.37,0001.46
2023-04-27 23:40:00,,0823.7,5.01,0.00,28.7,26.9,00.0,37.2,30.2,12.0,0000.0,0004.19,0012.65,0001.43
2023-04-27 23:41:00,,0823.7,5.00,0.00,28.7,26.9,00.0,37.1,30.2,12.1,0000.0,0004.14,0012.51,0001.42
2023-04-27 23:42:00,,0823.7,5.00,0.00,28.7,26.9,00.0,37.1,30.2,12.1,0000.0,0004.06,0012.27,0001.43
2023-04-27 23:43:00,,0823.8,5.01,0.00,28.7,26.9,00.0,37.1,30.2,12.0,0000.0,0003.99,0012.06,0001.41
2023-04-27 23:44:00,,0823.8,5.00,0.00,28.7,26.9,00.0,37.1,30.2,11.6,0000.0,0003.93,0010.61,0001.34
2023-04-27 23:45:00,,0823.9,5.00,0.00,28.7,26.9,00.0,37.1,30.2,11.6,0000.0,0003.88,0009.84,0001.34
2023-04-27 23:46:00,,0823.9,5.01,0.00,28.7,26.9,00.0,37.1,30.2,11.6,0000.0,0003.88,0009.82,0001.36
2023-04-27 23:47:00,,0823.9,5.01,0.00,28.7,27.0,00.0,37.1,30.2,11.9,0000.0,0003.86,0010.07,0001.37
2023-04-27 23:48:00,,0824.0,5.00,0.00,28.7,27.0,00.0,37.1,30.2,12.1,0000.0,0003.85,0010.41,0001.38
2023-04-27 23:49:00,,0824.0,4.99,0.00,28.8,27.1,00.0,37.1,30.2,11.9,0000.0,0003.82,0010.40,0001.39
2023-04-27 23:50:00,,0824.2,5.00,0.00,28.8,27.1,00.0,37.1,30.3,11.8,0000.0,0003.83,0010.24,0001.41
2023-04-27 23:51:00,,0824.2,5.00,0.00,28.8,27.2,00.0,37.1,30.3,11.9,0000.0,0003.86,0010.05,0001.44
2023-04-27 23:52:00,,0824.1,5.02,0.00,28.8,27.3,00.0,37.1,30.3,11.8,0000.0,0003.90,0010.39,0001.46
2023-04-27 23:53:00,,0824.1,4.99,0.00,28.8,27.3,00.0,37.1,30.3,11.9,0000.0,0003.94,0010.42,0001.46
2023-04-27 23:54:00,,0824.2,5.00,0.00,28.8,27.4,00.0,37.1,30.4,11.8,0000.0,0003.96,0010.45,0001.46
2023-04-27 23:55:00,,0824.3,4.99,0.00,28.8,27.4,00.0,37.2,30.4,11.6,0000.0,0003.98,0010.57,0001.48
2023-04-27 23:56:00,,0824.3,5.00,0.00,28.8,27.4,00.0,37.2,30.4,11.4,0000.0,0004.05,0010.94,0001.48
2023-04-27 23:57:00,,0824.4,5.00,0.00,28.8,27.4,00.0,37.2,30.4,11.5,0000.0,0004.06,0011.08,0001.45
2023-04-27 23:58:00,,0824.4,5.01,0.00,28.8,27.4,00.0,37.2,30.4,11.6,0000.0,0004.06,0011.05,0001.42
2023-04-27 23:59:00,,0824.4,4.99,0.00,28.9,27.4,00.0,37.2,30.4,11.4,0000.0,0004.02,0010.54,0001.42
